When you browse on this site, cookies collect data to enhance your experience and personalize the content and advertising you see.
Visit our Privacy Policy to learn more. By continuing to use the site, you agree to this use of cookies and data.
  • In Hungary
  • List of Countries
  • For 7 days
  • Water Temperature
  • Satellite Maps
  • Weather Map
  • News
  • Weather Widgets
  • user-avatar
    Login

    Hourly Weather San Felipe

    Today, 20 March, Wednesday

    Time Temperature Precipitation Wind Pressure Humidity
    00:00 +20°C° 0 mm 1 mps 706 mmHg 11%
    01:00 +20°C° 0 mm 1 mps 705 mmHg 12%
    02:00 +19°C° 0 mm 1 mps 705 mmHg 12%
    03:00 +19°C° 0 mm 1 mps 705 mmHg 12%
    04:00 +18°C° 0 mm 1 mps 704 mmHg 11%
    05:00 +20°C° 0 mm 1 mps 705 mmHg 10%
    06:00 +22°C° 0 mm 1 mps 705 mmHg 9%
    07:00 +24°C° 0 mm 1 mps 706 mmHg 8%
    08:00 +26°C° 0 mm 1 mps 706 mmHg 7%
    09:00 +27°C° 0 mm 1 mps 706 mmHg 6%
    10:00 +29°C° 0 mm 1 mps 706 mmHg 5%
    11:00 +30°C° 0 mm 2 mps 706 mmHg 6%
    12:00 +30°C° 0 mm 2 mps 706 mmHg 6%
    13:00 +31°C° 0 mm 2 mps 706 mmHg 6%
    14:00 +30°C° 0 mm 2 mps 706 mmHg 8%
    15:00 +30°C° 0 mm 2 mps 706 mmHg 9%
    16:00 +29°C° 0 mm 2 mps 706 mmHg 11%
    17:00 +27°C° 0 mm 1 mps 706 mmHg 15%
    18:00 +25°C° 0 mm 1 mps 706 mmHg 19%
    19:00 +21°C° 0 mm 0 mps 706 mmHg 24%
    20:00 +20°C° 0 mm 0 mps 706 mmHg 24%
    21:00 +20°C° 0 mm 0 mps 706 mmHg 25%
    22:00 +19°C° 0 mm 0 mps 706 mmHg 26%
    23:00 +19°C° 0 mm 0 mps 706 mmHg 26%

    Tomorrow, 21 March, Thursday

    Time Temperature Precipitation Wind Pressure Humidity
    00:00 +18°C° 0 mm 0 mps 705 mmHg 26%
    01:00 +18°C° 0 mm 0 mps 705 mmHg 26%
    02:00 +18°C° 0 mm 0 mps 705 mmHg 27%
    03:00 +17°C° 0 mm 0 mps 704 mmHg 28%
    04:00 +17°C° 0 mm 0 mps 704 mmHg 28%
    05:00 +18°C° 0 mm 0 mps 704 mmHg 25%
    06:00 +20°C° 0 mm 0 mps 705 mmHg 22%
    07:00 +22°C° 0 mm 0 mps 705 mmHg 19%
    08:00 +25°C° 0 mm 1 mps 705 mmHg 17%
    09:00 +27°C° 0 mm 2 mps 705 mmHg 14%
    10:00 +29°C° 0 mm 2 mps 705 mmHg 12%
    11:00 +30°C° 0 mm 2 mps 705 mmHg 12%
    12:00 +30°C° 0 mm 2 mps 705 mmHg 12%
    13:00 +31°C° 0 mm 3 mps 705 mmHg 12%
    14:00 +31°C° 0 mm 3 mps 705 mmHg 13%
    15:00 +30°C° 0 mm 3 mps 705 mmHg 14%
    16:00 +30°C° 0 mm 2 mps 705 mmHg 15%
    17:00 +28°C° 0 mm 2 mps 705 mmHg 19%
    18:00 +26°C° 0 mm 1 mps 705 mmHg 23%
    19:00 +24°C° 0 mm 1 mps 705 mmHg 28%
    20:00 +23°C° 0 mm 1 mps 705 mmHg 29%
    21:00 +20°C° 0 mm 0 mps 705 mmHg 30%
    22:00 +20°C° 0 mm 0 mps 705 mmHg 31%
    23:00 +19°C° 0 mm 0 mps 705 mmHg 31%

    Day after tomorrow, 22 March, Friday

    Time Temperature Precipitation Wind Pressure Humidity
    00:00 +19°C° 0 mm 0 mps 705 mmHg 31%
    01:00 +19°C° 0 mm 0 mps 705 mmHg 31%
    02:00 +18°C° 0 mm 0 mps 704 mmHg 30%
    03:00 +18°C° 0 mm 0 mps 704 mmHg 29%
    04:00 +20°C° 0 mm 1 mps 704 mmHg 28%
    05:00 +21°C° 0 mm 1 mps 704 mmHg 25%
    06:00 +23°C° 0 mm 1 mps 705 mmHg 22%
    07:00 +25°C° 0 mm 1 mps 705 mmHg 18%
    08:00 +27°C° 0 mm 1 mps 706 mmHg 16%
    09:00 +29°C° 0 mm 1 mps 706 mmHg 13%
    10:00 +31°C° 0 mm 2 mps 706 mmHg 10%
    11:00 +31°C° 0 mm 2 mps 706 mmHg 9%
    12:00 +32°C° 0 mm 2 mps 706 mmHg 9%
    13:00 +34°C° 0 mm 2 mps 706 mmHg 9%
    14:00 +32°C° 0 mm 2 mps 705 mmHg 10%
    15:00 +32°C° 0 mm 2 mps 705 mmHg 11%
    16:00 +31°C° 0 mm 2 mps 705 mmHg 12%
    17:00 +29°C° 0 mm 2 mps 705 mmHg 17%
    18:00 +27°C° 0 mm 1 mps 705 mmHg 21%
    19:00 +22°C° 0 mm 0 mps 705 mmHg 26%
    20:00 +22°C° 0 mm 0 mps 706 mmHg 27%
    21:00 +21°C° 0 mm 0 mps 706 mmHg 29%
    22:00 +20°C° 0 mm 0 mps 706 mmHg 31%
    23:00 +20°C° 0 mm 0 mps 706 mmHg 32%

    23 March, Saturday

    Time Temperature Precipitation Wind Pressure Humidity
    00:00 +19°C° 0 mm 0 mps 705 mmHg 33%
    01:00 +19°C° 0 mm 0 mps 705 mmHg 34%
    02:00 +18°C° 0 mm 0 mps 705 mmHg 34%
    03:00 +18°C° 0 mm 0 mps 704 mmHg 33%
    04:00 +18°C° 0 mm 0 mps 704 mmHg 33%
    05:00 +20°C° 0 mm 0 mps 705 mmHg 29%
    06:00 +21°C° 0 mm 0 mps 705 mmHg 26%
    07:00 +25°C° 0 mm 1 mps 706 mmHg 22%
    08:00 +27°C° 0 mm 1 mps 706 mmHg 19%
    09:00 +29°C° 0 mm 2 mps 706 mmHg 15%
    10:00 +30°C° 0 mm 2 mps 707 mmHg 12%
    11:00 +31°C° 0 mm 2 mps 706 mmHg 12%
    12:00 +32°C° 0 mm 2 mps 706 mmHg 12%
    13:00 +32°C° 0 mm 2 mps 706 mmHg 11%
    14:00 +32°C° 0 mm 2 mps 706 mmHg 13%
    15:00 +32°C° 0 mm 2 mps 706 mmHg 14%
    16:00 +31°C° 0 mm 2 mps 706 mmHg 15%
    17:00 +29°C° 0 mm 2 mps 706 mmHg 20%
    18:00 +27°C° 0 mm 1 mps 706 mmHg 25%
    19:00 +25°C° 0 mm 1 mps 706 mmHg 29%
    20:00 +24°C° 0 mm 1 mps 706 mmHg 30%
    21:00 +21°C° 0 mm 0 mps 706 mmHg 31%
    22:00 +21°C° 0 mm 0 mps 706 mmHg 32%
    23:00 +20°C° 0 mm 0 mps 706 mmHg 32%

    24 March, Sunday

    Time Temperature Precipitation Wind Pressure Humidity
    00:00 +20°C° 0 mm 0 mps 706 mmHg 31%
    01:00 +19°C° 0 mm 0 mps 706 mmHg 30%
    02:00 +21°C° 0 mm 1 mps 706 mmHg 30%
    03:00 +21°C° 0 mm 1 mps 705 mmHg 29%
    04:00 +20°C° 0 mm 1 mps 705 mmHg 29%
    05:00 +22°C° 0 mm 1 mps 706 mmHg 26%
    06:00 +24°C° 0 mm 1 mps 706 mmHg 23%
    07:00 +25°C° 0 mm 1 mps 706 mmHg 20%
    08:00 +27°C° 0 mm 1 mps 706 mmHg 17%
    09:00 +29°C° 0 mm 1 mps 707 mmHg 14%
    10:00 +31°C° 0 mm 2 mps 707 mmHg 11%
    11:00 +32°C° 0 mm 2 mps 706 mmHg 11%
    12:00 +32°C° 0 mm 2 mps 706 mmHg 11%
    13:00 +34°C° 0 mm 3 mps 706 mmHg 11%
    14:00 +32°C° 0 mm 2 mps 706 mmHg 13%
    15:00 +32°C° 0 mm 2 mps 706 mmHg 15%
    16:00 +31°C° 0 mm 2 mps 706 mmHg 16%
    17:00 +29°C° 0 mm 2 mps 706 mmHg 22%
    18:00 +27°C° 0 mm 1 mps 706 mmHg 27%
    19:00 +22°C° 0 mm 0 mps 706 mmHg 32%
    20:00 +22°C° 0 mm 0 mps 706 mmHg 33%
    21:00 +21°C° 0 mm 0 mps 705 mmHg 34%
    22:00 +21°C° 0 mm 0 mps 705 mmHg 35%
    23:00 +20°C° 0 mm 0 mps 705 mmHg 35%

    25 March, Monday

    Time Temperature Precipitation Wind Pressure Humidity
    00:00 +20°C° 0 mm 0 mps 705 mmHg 34%
    01:00 +19°C° 0 mm 0 mps 704 mmHg 34%
    02:00 +19°C° 0 mm 0 mps 704 mmHg 34%
    03:00 +18°C° 0 mm 0 mps 704 mmHg 33%
    04:00 +18°C° 0 mm 0 mps 703 mmHg 33%
    05:00 +19°C° 0 mm 0 mps 704 mmHg 30%
    06:00 +21°C° 0 mm 0 mps 704 mmHg 27%
    07:00 +22°C° 0 mm 0 mps 705 mmHg 24%
    08:00 +26°C° 0 mm 1 mps 705 mmHg 20%
    09:00 +28°C° 0 mm 1 mps 705 mmHg 17%
    10:00 +30°C° 0 mm 2 mps 706 mmHg 14%
    11:00 +30°C° 0 mm 2 mps 705 mmHg 14%
    12:00 +31°C° 0 mm 2 mps 705 mmHg 14%
    13:00 +31°C° 0 mm 2 mps 705 mmHg 14%
    14:00 +31°C° 0 mm 2 mps 705 mmHg 16%
    15:00 +30°C° 0 mm 2 mps 705 mmHg 18%
    16:00 +30°C° 0 mm 2 mps 705 mmHg 20%
    17:00 +28°C° 0 mm 2 mps 705 mmHg 25%
    18:00 +26°C° 0 mm 1 mps 705 mmHg 30%
    19:00 +22°C° 0 mm 0 mps 705 mmHg 35%
    20:00 +21°C° 0 mm 0 mps 705 mmHg 35%
    21:00 +20°C° 0 mm 0 mps 705 mmHg 36%
    22:00 +20°C° 0 mm 0 mps 705 mmHg 36%
    23:00 +19°C° 0 mm 0 mps 705 mmHg 37%
    Show more